Location: Gleizolles
(44.4833°N, 6.7667°E)
Time: 12:06:21
(UTC+00:00)

Cosmos 2333 Rocket - Pass Details

Date: 09 April 2020
Orbit: 841 x 860 km, 70.8° (Epoch: 26 May)

Event Time Altitude Azimuth Distance (km) Brightness Sun altitude
Rises 23:36:21 0° 339° (NNW) 3,407 6.2 -37.5°
Reaches altitude 10° 23:39:00 10° 348° (NNW) 2,469 5.3 -37.5°
Enters shadow 23:42:30 30° 19° (NNE) 1,465 3.8 -37.4°
